When you browse on this site, cookies collect data to enhance your experience and personalize the content and advertising you see.
Visit our Privacy Policy to learn more. By continuing to use the site, you agree to this use of cookies and data.
  • en France
  • Liste des pays
  • À 7 jours
  • Température de l'eau
  • Carte satellitaire
  • Carte météo
  • Widgets météo
  • user-avatar
    Se connecter

    Météo par heure à Lena

    Ce jour, 25 Mai, Samedi

    Heure Température Précipitation Vent Pression Humidité
    00:00 +2°C° 0 mm 5 m/s 736 mmHg 77%
    01:00 +2°C° 0 mm 5 m/s 737 mmHg 76%
    02:00 +1°C° 0 mm 4 m/s 737 mmHg 76%
    03:00 +1°C° 0 mm 4 m/s 738 mmHg 77%
    04:00 +1°C° 0 mm 3 m/s 738 mmHg 77%
    05:00 +1°C° 0 mm 4 m/s 739 mmHg 73%
    06:00 +3°C° 0 mm 4 m/s 739 mmHg 68%
    07:00 +4°C° 0 mm 4 m/s 740 mmHg 64%
    08:00 +6°C° 0 mm 4 m/s 740 mmHg 59%
    09:00 +7°C° 0 mm 4 m/s 740 mmHg 54%
    10:00 +8°C° 0 mm 4 m/s 741 mmHg 49%
    11:00 +10°C° 0 mm 4 m/s 741 mmHg 47%
    12:00 +10°C° 0 mm 4 m/s 741 mmHg 46%
    13:00 +11°C° 0 mm 4 m/s 741 mmHg 44%
    14:00 +12°C° 0 mm 4 m/s 741 mmHg 45%
    15:00 +12°C° 0 mm 3 m/s 741 mmHg 45%
    16:00 +12°C° 0 mm 3 m/s 741 mmHg 45%
    17:00 +12°C° 0 mm 3 m/s 741 mmHg 50%
    18:00 +11°C° 0 mm 3 m/s 741 mmHg 54%
    19:00 +12°C° 0 mm 2 m/s 741 mmHg 59%
    20:00 +9°C° 0 mm 2 m/s 742 mmHg 62%
    21:00 +8°C° 0 mm 2 m/s 742 mmHg 65%
    22:00 +6°C° 0 mm 2 m/s 742 mmHg 69%
    23:00 +6°C° 0 mm 2 m/s 742 mmHg 69%

    Demain, 26 Mai, Dimanche

    Heure Température Précipitation Vent Pression Humidité
    00:00 +5°C° 0 mm 2 m/s 742 mmHg 69%
    01:00 +5°C° 0 mm 2 m/s 742 mmHg 69%
    02:00 +4°C° 0 mm 2 m/s 743 mmHg 70%
    03:00 +4°C° 0 mm 2 m/s 743 mmHg 71%
    04:00 +4°C° 0 mm 2 m/s 743 mmHg 72%
    05:00 +5°C° 0 mm 2 m/s 743 mmHg 69%
    06:00 +7°C° 0 mm 2 m/s 743 mmHg 67%
    07:00 +8°C° 0 mm 3 m/s 743 mmHg 64%
    08:00 +10°C° 0 mm 3 m/s 743 mmHg 59%
    09:00 +12°C° 0 mm 4 m/s 743 mmHg 55%
    10:00 +14°C° 0 mm 4 m/s 743 mmHg 50%
    11:00 +15°C° 0 mm 5 m/s 742 mmHg 48%
    12:00 +17°C° 0 mm 6 m/s 742 mmHg 46%
    13:00 +19°C° 0 mm 6 m/s 742 mmHg 44%
    14:00 +19°C° 0 mm 6 m/s 742 mmHg 45%
    15:00 +20°C° 0 mm 6 m/s 741 mmHg 45%
    16:00 +20°C° 0 mm 6 m/s 741 mmHg 45%
    17:00 +20°C° 0 mm 6 m/s 741 mmHg 51%
    18:00 +19°C° 0 mm 5 m/s 741 mmHg 56%
    19:00 +18°C° 0 mm 4 m/s 740 mmHg 62%
    20:00 +16°C° 0 mm 5 m/s 740 mmHg 62%
    21:00 +15°C° 0 mm 5 m/s 740 mmHg 62%
    22:00 +14°C° 0 mm 5 m/s 740 mmHg 62%
    23:00 +14°C° 0 mm 6 m/s 740 mmHg 59%

    Après-demain, 27 Mai, Lundi

    Heure Température Précipitation Vent Pression Humidité
    00:00 +15°C° 0 mm 6 m/s 740 mmHg 55%
    01:00 +15°C° 0 mm 7 m/s 740 mmHg 51%
    02:00 +15°C° 0 mm 7 m/s 740 mmHg 50%
    03:00 +14°C° 0 mm 7 m/s 740 mmHg 48%
    04:00 +14°C° 0 mm 7 m/s 740 mmHg 47%
    05:00 +14°C° 0 mm 7 m/s 740 mmHg 48%
    06:00 +13°C° 0 mm 8 m/s 740 mmHg 50%
    07:00 +13°C° 0 mm 8 m/s 740 mmHg 51%
    08:00 +15°C° 0 mm 8 m/s 740 mmHg 50%
    09:00 +16°C° 0 mm 8 m/s 741 mmHg 50%
    10:00 +16°C° 0 mm 8 m/s 741 mmHg 49%
    11:00 +18°C° 0 mm 8 m/s 740 mmHg 47%
    12:00 +21°C° 0 mm 8 m/s 740 mmHg 44%
    13:00 +22°C° 0 mm 8 m/s 740 mmHg 42%
    14:00 +23°C° 0 mm 8 m/s 740 mmHg 41%
    15:00 +23°C° 0 mm 8 m/s 739 mmHg 41%
    16:00 +23°C° 0 mm 8 m/s 739 mmHg 40%
    17:00 +22°C° 0 mm 6 m/s 739 mmHg 45%
    18:00 +21°C° 0 mm 5 m/s 739 mmHg 50%
    19:00 +20°C° 0 mm 4 m/s 738 mmHg 55%
    20:00 +19°C° 0 mm 4 m/s 738 mmHg 56%
    21:00 +18°C° 0 mm 4 m/s 738 mmHg 58%
    22:00 +15°C° 0 mm 4 m/s 738 mmHg 60%
    23:00 +16°C° 0 mm 3 m/s 738 mmHg 60%

    28 Mai, Mardi

    Heure Température Précipitation Vent Pression Humidité
    00:00 +16°C° 0 mm 3 m/s 738 mmHg 60%
    01:00 +14°C° 0 mm 3 m/s 738 mmHg 61%
    02:00 +16°C° 0 mm 3 m/s 738 mmHg 60%
    03:00 +16°C° 0 mm 2 m/s 738 mmHg 60%
    04:00 +16°C° 0 mm 2 m/s 738 mmHg 59%
    05:00 +17°C° 0 mm 3 m/s 738 mmHg 60%
    06:00 +18°C° 0 mm 3 m/s 739 mmHg 62%
    07:00 +19°C° 0 mm 4 m/s 739 mmHg 63%
    08:00 +20°C° 0 mm 4 m/s 739 mmHg 60%
    09:00 +22°C° 0 mm 4 m/s 739 mmHg 56%
    10:00 +23°C° 0 mm 4 m/s 739 mmHg 53%
    11:00 +25°C° 0 mm 4 m/s 739 mmHg 50%
    12:00 +26°C° 0 mm 4 m/s 739 mmHg 47%
    13:00 +27°C° 0 mm 3 m/s 739 mmHg 44%
    14:00 +28°C° 0 mm 3 m/s 739 mmHg 44%
    15:00 +28°C° 0 mm 3 m/s 739 mmHg 43%
    16:00 +28°C° 0 mm 3 m/s 739 mmHg 43%
    17:00 +27°C° 0 mm 3 m/s 739 mmHg 50%
    18:00 +25°C° 0 mm 2 m/s 739 mmHg 58%
    19:00 +24°C° 0 mm 2 m/s 739 mmHg 65%
    20:00 +21°C° 0 mm 2 m/s 739 mmHg 70%
    21:00 +20°C° 0 mm 3 m/s 740 mmHg 76%
    22:00 +18°C° 0 mm 3 m/s 740 mmHg 81%
    23:00 +18°C° 0 mm 3 m/s 740 mmHg 83%

    29 Mai, Mercredi

    Heure Température Précipitation Vent Pression Humidité
    00:00 +17°C° 0 mm 3 m/s 740 mmHg 85%
    01:00 +17°C° 0 mm 3 m/s 740 mmHg 88%
    02:00 +16°C° 0 mm 3 m/s 740 mmHg 89%
    03:00 +15°C° 0 mm 4 m/s 740 mmHg 90%
    04:00 +14°C° 0 mm 4 m/s 741 mmHg 91%
    05:00 +17°C° 0 mm 4 m/s 741 mmHg 85%
    06:00 +17°C° 0 mm 5 m/s 741 mmHg 80%
    07:00 +19°C° 0 mm 5 m/s 741 mmHg 75%
    08:00 +20°C° 0 mm 5 m/s 742 mmHg 69%
    09:00 +22°C° 0 mm 5 m/s 742 mmHg 63%
    10:00 +23°C° 0 mm 5 m/s 742 mmHg 57%
    11:00 +25°C° 0 mm 5 m/s 742 mmHg 54%
    12:00 +26°C° 0 mm 4 m/s 742 mmHg 51%
    13:00 +27°C° 0 mm 4 m/s 742 mmHg 49%
    14:00 +27°C° 0 mm 4 m/s 742 mmHg 49%
    15:00 +27°C° 0 mm 5 m/s 742 mmHg 50%
    16:00 +27°C° 0 mm 5 m/s 742 mmHg 51%
    17:00 +26°C° 0 mm 4 m/s 742 mmHg 57%
    18:00 +25°C° 0 mm 4 m/s 742 mmHg 64%
    19:00 +23°C° 0 mm 4 m/s 742 mmHg 70%
    20:00 +21°C° 0 mm 3 m/s 742 mmHg 75%
    21:00 +20°C° 0 mm 3 m/s 742 mmHg 80%
    22:00 +18°C° 0 mm 3 m/s 742 mmHg 84%
    23:00 +18°C° 0 mm 3 m/s 742 mmHg 85%

    30 Mai, Jeudi

    Heure Température Précipitation Vent Pression Humidité
    00:00 +17°C° 0 mm 3 m/s 742 mmHg 85%
    01:00 +17°C° 0 mm 3 m/s 743 mmHg 86%
    02:00 +16°C° 0 mm 3 m/s 743 mmHg 86%
    03:00 +16°C° 0 mm 3 m/s 743 mmHg 87%
    04:00 +16°C° 0 mm 2 m/s 743 mmHg 87%
    05:00 +17°C° 0 mm 3 m/s 743 mmHg 83%
    06:00 +18°C° 0 mm 3 m/s 743 mmHg 78%
    07:00 +20°C° 0 mm 3 m/s 743 mmHg 74%
    08:00 +21°C° 0 mm 4 m/s 743 mmHg 67%
    09:00 +23°C° 0 mm 4 m/s 743 mmHg 61%
    10:00 +25°C° 0 mm 4 m/s 743 mmHg 55%
    11:00 +26°C° 0 mm 4 m/s 743 mmHg 52%
    12:00 +27°C° 0 mm 4 m/s 743 mmHg 50%
    13:00 +28°C° 0 mm 4 m/s 743 mmHg 47%
    14:00 +28°C° 0 mm 4 m/s 743 mmHg 48%
    15:00 +28°C° 0 mm 4 m/s 743 mmHg 48%
    16:00 +29°C° 0 mm 4 m/s 743 mmHg 49%
    17:00 +28°C° 0 mm 3 m/s 743 mmHg 55%
    18:00 +27°C° 0 mm 3 m/s 742 mmHg 61%
    19:00 +26°C° 0 mm 3 m/s 742 mmHg 67%
    20:00 +24°C° 0 mm 2 m/s 743 mmHg 72%
    21:00 +23°C° 0 mm 2 m/s 743 mmHg 77%
    22:00 +20°C° 0 mm 2 m/s 743 mmHg 82%
    23:00 +20°C° 0 mm 2 m/s 743 mmHg 83%
    Voir plus